ECMWFFLT2_925_spd_000.txt.gz
Wind_Speed
12 12 7 2 4 2 11 16 15 16 15 15 15 17 19 19 19 18 15 15 15 16 15 13 13 10 11 13 15 20 24 23 23 24 23 22 23 23 23 21 18 17 17 16 14 13 11 9 8 10 14 16 16 15 13 13 11 11 11 10 10 9
14 12 11 8 7 4 8 16 17 16 14 13 12 15 17 18 18 18 16 16 16 15 14 14 14 13 13 12 14 20 21 20 22 23 22 22 22 21 20 19 18 16 15 14 13 12 10 10 9 12 17 18 17 16 14 12 10 10 11 11 10 9
16 13 12 11 10 6 5 13 17 16 16 16 13 14 17 18 18 18 18 17 17 15 14 14 13 13 14 14 17 21 22 22 22 20 20 21 20 19 18 17 16 16 14 13 12 11 10 11 10 15 21 20 18 16 15 13 11 11 11 11 12 11
15 14 12 11 12 11 4 8 15 16 17 17 14 13 15 17 18 18 18 18 17 15 15 14 12 13 16 16 18 21 23 22 21 20 18 18 18 18 17 16 15 15 15 13 12 10 11 12 12 16 23 22 20 18 15 14 12 11 12 13 13 12
12 13 13 12 11 11 9 3 8 12 14 14 13 12 12 14 17 18 19 19 18 16 16 15 14 15 17 18 20 21 21 20 19 19 18 17 17 17 17 16 15 15 14 13 12 11 11 13 14 17 22 24 22 19 16 15 13 12 13 13 13 13
9 11 12 12 10 9 9 9 3 4 9 10 12 14 13 14 17 19 21 21 20 19 17 17 17 17 17 19 20 21 20 19 18 19 19 17 16 16 16 16 15 15 14 14 12 12 12 13 16 19 22 24 23 21 18 16 14 13 13 12 12 13
7 8 9 10 10 9 10 10 8 3 4 7 11 16 18 19 20 21 22 23 23 22 20 20 20 19 18 19 20 21 21 19 19 19 18 17 16 16 16 15 16 15 14 13 13 13 13 14 16 19 22 24 24 22 19 17 15 13 12 11 12 14
5 6 7 7 8 10 11 10 9 7 3 2 10 17 19 19 18 19 21 22 23 23 23 22 22 21 20 20 21 22 21 20 20 20 19 17 16 15 16 15 15 15 14 13 13 13 14 15 17 19 22 23 23 22 20 18 16 13 11 11 12 14
6 6 6 6 5 8 10 10 9 8 8 6 2 8 11 14 15 17 19 22 23 23 25 24 23 23 23 23 22 22 22 22 22 21 20 18 17 16 16 15 14 14 14 13 13 14 15 15 16 19 21 23 23 22 21 18 15 13 11 11 12 13
8 7 6 5 5 5 6 7 7 7 7 7 4 2 4 8 14 17 18 21 23 25 26 27 26 26 26 25 23 22 22 23 23 23 21 20 18 17 16 15 14 13 13 13 13 14 16 16 16 18 20 22 23 22 20 17 15 13 11 11 11 12
9 8 7 6 5 4 4 4 4 4 4 4 3 1 1 4 10 16 18 20 23 26 29 28 27 28 28 27 25 24 23 24 25 25 23 22 20 17 16 15 14 13 12 12 14 14 16 17 17 18 19 21 22 21 19 17 15 13 12 11 11 12
10 10 9 7 7 6 5 3 3 3 4 4 3 2 3 3 5 11 17 20 22 24 29 30 28 29 30 30 29 28 26 25 26 26 24 22 21 19 17 16 14 13 12 11 13 15 16 17 17 18 19 21 22 20 18 17 15 14 12 11 11 12
10 10 11 10 9 8 8 6 5 5 6 6 6 6 5 5 3 5 12 19 21 21 25 29 31 30 31 30 30 30 29 28 28 27 25 23 22 21 19 17 15 14 13 12 14 15 16 17 17 17 18 20 22 20 19 17 15 14 12 11 12 13
9 10 12 12 11 9 10 10 9 8 8 8 8 9 9 9 6 4 8 12 16 20 21 23 27 31 31 30 30 31 31 31 31 28 25 25 24 23 22 19 16 16 14 13 15 15 16 17 17 17 17 19 20 19 18 17 15 13 12 11 12 14
8 10 12 12 12 11 11 12 12 11 11 10 9 10 11 11 10 8 9 8 10 16 19 19 21 26 31 32 30 31 32 32 33 30 27 27 26 24 23 20 18 18 15 14 16 16 16 17 17 17 17 18 18 17 17 16 15 14 12 12 12 14
9 10 11 12 14 14 13 13 13 13 13 12 10 9 10 12 13 12 13 12 10 11 14 17 19 21 25 32 34 32 31 32 33 32 30 28 27 25 23 21 19 19 17 16 17 18 17 17 16 16 16 16 17 16 16 16 15 14 13 12 12 13
9 10 11 12 14 15 16 15 15 15 15 14 12 10 10 10 13 14 14 14 13 12 12 13 16 19 20 24 33 36 33 31 35 35 31 31 29 27 24 22 21 21 19 17 18 19 19 18 16 15 14 15 16 15 15 16 16 15 14 13 12 13
9 11 12 13 14 15 16 17 17 17 17 16 14 12 10 10 10 12 13 13 14 15 15 14 15 18 18 18 23 35 38 33 35 36 33 33 31 28 25 23 23 23 20 19 19 19 20 20 18 16 14 14 16 15 15 17 18 17 15 13 12 12
9 11 13 15 15 15 16 17 17 17 17 17 17 15 13 12 11 10 12 13 13 14 16 18 18 18 19 19 19 24 37 37 34 36 34 33 33 30 27 25 25 25 23 21 20 19 19 19 18 17 16 14 15 17 17 19 19 19 16 13 12 13
8 11 14 16 17 18 18 19 19 18 17 17 17 17 16 15 13 11 10 11 12 12 12 15 18 19 20 20 19 18 28 37 35 35 34 33 35 33 29 28 28 29 27 24 21 20 19 18 19 18 16 15 15 17 19 20 20 19 16 14 14 15
7 11 13 15 17 19 21 21 21 21 20 19 19 19 18 16 16 13 11 10 11 12 11 11 13 14 15 16 16 16 18 30 34 35 35 34 35 33 30 29 30 30 29 27 24 22 22 20 18 17 15 14 14 15 16 19 21 20 17 16 17 17
8 11 13 14 16 18 20 20 20 20 21 21 20 20 19 18 17 17 14 11 9 10 10 11 11 11 10 10 13 15 16 23 31 34 35 34 34 34 33 31 30 31 30 30 28 26 25 20 16 17 14 9 8 11 14 18 21 21 19 19 18 17
9 12 13 14 16 18 19 19 20 20 20 21 20 19 19 19 18 18 17 13 10 8 8 9 10 10 9 9 12 16 17 20 25 32 33 33 34 35 35 34 33 32 31 30 28 27 28 24 19 17 12 6 4 5 8 13 19 22 23 22 20 18
8 11 12 14 17 18 19 19 19 20 19 19 19 18 19 20 19 18 17 14 11 9 9 9 9 8 9 9 11 14 18 19 22 29 33 33 34 34 35 36 36 34 32 29 27 28 30 30 26 20 10 3 2 3 3 7 13 18 21 22 21 20
9 11 12 14 16 18 19 20 20 20 20 19 17 16 18 20 19 17 17 15 14 12 11 10 9 8 9 9 11 13 16 19 21 26 31 32 33 35 35 36 37 36 35 32 30 28 29 31 33 29 19 9 5 3 3 4 7 11 18 20 21 22
10 12 13 15 16 17 17 18 19 20 20 20 19 17 15 16 18 18 18 18 17 16 14 12 10 9 9 10 11 13 15 18 21 24 28 30 31 34 36 38 39 38 38 36 32 27 27 30 32 33 31 23 15 8 5 7 5 3 11 17 20 22
11 12 14 16 16 16 15 15 17 18 19 19 20 22 18 15 17 19 19 19 19 19 18 16 13 11 10 11 11 13 15 18 21 24 26 28 29 31 34 37 39 40 39 37 34 29 28 29 29 30 33 31 24 14 9 12 7 2 3 10 17 21
11 13 14 15 16 16 14 13 15 16 18 18 20 24 24 20 18 18 18 20 20 21 20 19 16 13 11 13 13 14 15 17 21 24 26 29 30 30 31 34 35 38 38 36 36 34 30 30 29 28 31 31 27 18 13 15 17 12 4 2 9 15
12 13 14 15 16 15 13 12 13 15 18 20 22 24 25 24 20 18 19 20 20 21 21 20 18 16 13 13 15 16 16 17 20 23 27 29 31 32 33 34 34 36 36 35 38 37 32 33 33 30 30 31 28 22 16 15 19 19 9 4 4 5
11 12 13 14 15 15 13 12 14 16 19 22 24 25 25 25 23 19 18 18 19 21 22 21 20 18 16 14 14 16 18 19 19 21 25 28 30 32 34 36 36 37 37 36 37 36 34 35 36 33 33 33 29 24 18 12 15 19 12 7 5 4
12 11 12 14 15 16 15 15 16 17 19 22 23 24 24 24 24 22 20 18 18 19 20 21 21 21 19 16 16 16 18 20 20 20 23 26 28 30 32 35 37 38 40 39 38 36 35 35 34 34 35 35 33 30 25 17 17 21 14 8 6 4
12 11 13 14 15 16 16 16 17 18 19 20 21 22 23 23 23 22 21 19 17 17 17 18 20 21 21 18 18 18 19 20 22 22 22 25 27 29 30 33 36 38 40 42 41 37 33 32 32 34 35 37 36 33 32 27 23 24 21 16 12 6
13 12 13 15 15 16 17 17 17 17 18 18 18 19 21 22 22 21 20 20 19 17 16 17 18 20 21 20 19 20 21 22 23 23 22 23 25 27 29 32 35 38 40 42 43 41 36 35 35 36 36 36 35 34 34 32 27 25 24 23 18 10
14 13 14 14 15 16 17 17 17 17 18 18 18 18 18 19 21 21 21 22 22 20 19 19 19 20 22 21 20 20 22 24 24 24 24 24 24 24 27 31 34 38 41 42 43 43 42 39 36 36 36 35 35 36 36 34 31 29 26 25 22 15
15 15 14 14 15 16 17 17 17 18 18 18 19 19 18 18 19 21 22 23 24 24 23 23 22 22 23 22 21 21 22 24 25 26 27 26 25 24 26 29 33 37 40 41 42 42 43 41 37 36 36 36 37 36 35 34 34 32 29 27 26 24
15 15 13 14 14 15 16 17 17 17 18 18 19 19 19 19 20 21 23 25 28 28 27 27 25 24 23 21 21 21 22 24 25 27 28 28 28 26 25 27 31 34 37 39 41 42 42 42 41 39 39 38 37 35 35 35 35 33 31 29 28 28
17 15 13 13 13 14 15 16 16 16 17 18 19 20 21 22 22 22 23 24 27 28 27 27 25 24 23 22 21 20 21 23 25 26 28 30 29 28 27 27 29 32 34 37 40 42 43 42 41 40 40 40 38 36 35 35 35 35 32 31 29 29

ECMWFFLT2_925_spd_006.txt.gz
Wind_Speed
8 7 6 3 3 8 17 17 17 18 18 19 18 16 15 15 15 15 15 15 14 14 14 13 13 13 13 15 17 17 17 15 14 13 12 13 13 15 17 18 20 19 15 13 11 9 9 8 9 10 9 8 7 6 5 3 4 4 3 4 4 4
8 7 6 4 4 6 13 14 13 17 19 18 18 16 15 15 15 15 16 15 14 13 13 12 12 12 13 15 17 17 18 17 15 14 13 13 14 14 17 19 22 20 15 13 10 7 8 8 10 10 9 9 8 7 5 4 4 4 3 4 4 4
8 8 6 5 5 5 10 11 11 15 17 16 15 16 15 14 15 14 15 15 14 13 12 12 12 12 12 15 17 18 19 18 16 15 14 14 14 15 17 20 21 20 16 13 8 6 7 8 10 11 10 9 9 7 6 5 5 4 4 4 4 5
8 8 7 6 6 5 7 9 9 12 15 14 13 15 15 14 14 13 13 14 12 13 12 11 12 11 10 14 18 19 20 20 17 15 16 15 14 16 18 18 18 18 15 11 8 6 7 7 9 11 11 10 9 7 6 6 5 5 4 4 5 6
7 7 7 6 6 5 5 7 8 10 12 13 13 16 15 13 13 12 13 12 11 11 11 10 11 10 9 12 18 20 20 20 19 17 17 16 15 17 17 15 16 15 12 10 8 7 7 7 8 10 10 10 9 8 7 7 6 5 4 5 6 7
6 7 7 5 5 5 5 6 6 7 8 10 11 13 14 12 11 11 12 12 11 10 10 10 9 9 9 10 14 19 21 20 19 19 18 16 16 17 16 14 14 13 11 10 9 8 7 7 7 9 9 9 9 9 8 7 6 5 4 5 7 7
5 6 6 5 5 5 5 6 4 6 6 7 9 10 10 11 11 11 11 10 10 10 10 10 10 10 10 10 12 17 20 18 17 18 18 16 16 17 16 14 13 13 11 10 9 9 9 8 8 8 9 9 9 10 9 7 6 6 5 5 6 7
5 5 6 5 5 5 6 6 4 4 5 8 9 7 7 10 10 11 12 10 9 10 10 10 11 10 11 11 12 16 18 17 17 16 17 17 16 16 15 13 13 12 11 10 10 9 9 10 10 9 9 9 9 10 9 8 7 6 5 5 6 8
6 5 5 5 5 6 6 6 5 4 2 6 9 8 8 9 8 9 12 12 10 11 12 12 12 12 13 12 13 16 17 17 17 15 15 17 15 15 15 13 13 12 11 11 10 10 9 10 11 10 10 10 10 10 10 9 7 7 6 6 6 8
7 6 5 5 5 5 6 6 6 5 4 3 6 9 8 8 7 6 9 12 11 12 14 14 13 14 16 14 14 16 16 17 17 15 15 16 15 14 14 13 12 11 11 11 10 10 10 10 11 12 12 11 11 11 11 10 9 8 8 7 7 7
8 8 7 6 6 6 6 6 6 5 5 4 1 3 5 8 10 8 6 9 11 11 14 15 14 14 15 15 14 15 16 16 15 15 15 15 14 14 14 13 12 12 11 11 10 10 10 10 11 12 13 12 12 11 11 11 11 9 9 8 8 7
8 9 8 7 7 6 6 6 6 5 4 4 4 2 1 5 10 12 10 9 9 10 12 13 15 14 13 14 15 15 15 17 16 15 15 14 13 13 14 12 12 11 11 10 9 9 10 10 11 12 13 13 13 12 12 12 12 11 10 9 9 9
7 9 9 8 8 7 6 6 6 5 5 4 4 3 2 2 5 11 13 10 10 11 12 13 15 15 13 13 17 18 15 16 17 15 14 13 12 13 14 13 12 11 11 11 10 9 10 10 11 12 12 13 14 13 13 13 13 12 11 11 10 9
7 8 9 9 8 7 7 6 6 6 5 4 3 3 3 3 4 6 8 8 9 11 13 13 13 14 15 13 15 18 17 16 16 15 13 13 12 13 14 13 12 12 12 11 11 10 10 11 12 12 13 13 14 14 14 14 14 13 12 12 11 10
6 7 8 9 10 8 8 7 6 6 5 3 2 3 2 3 3 4 5 7 10 10 11 13 12 13 16 17 16 16 17 16 15 15 14 13 13 13 13 14 13 13 12 12 11 11 11 11 12 13 14 14 15 15 15 15 14 14 13 12 12 11
4 5 7 10 12 11 11 10 7 8 8 5 3 2 2 2 2 4 4 6 9 12 13 11 11 13 15 17 18 18 17 16 16 16 15 14 14 14 13 14 14 14 13 12 11 12 11 11 12 13 14 14 15 15 16 16 16 15 14 14 13 12
4 4 6 9 11 10 11 11 9 9 10 7 4 3 3 3 2 3 4 4 5 9 12 10 10 12 14 15 16 18 19 19 19 17 16 16 15 16 15 14 15 15 14 13 12 12 12 11 12 13 14 15 15 15 16 16 16 16 15 15 14 13
2 3 5 8 10 10 10 10 9 10 11 8 5 4 4 3 2 2 3 4 4 5 7 9 11 11 12 14 13 15 17 19 21 20 20 19 18 17 16 16 16 16 15 15 14 12 11 11 11 12 14 15 15 16 16 17 17 17 16 16 15 14
2 2 5 8 9 8 8 8 7 7 8 7 6 5 4 3 2 2 2 3 4 4 5 8 11 12 13 14 12 13 15 14 16 20 23 25 24 20 17 18 19 18 16 16 15 12 11 10 11 12 13 14 16 16 16 17 17 17 18 17 15 14
3 2 3 5 6 6 7 7 7 7 7 7 6 5 4 3 2 2 2 3 3 4 5 6 9 12 16 17 15 14 14 12 11 17 21 26 31 27 21 20 20 19 17 16 15 13 12 11 11 12 12 13 15 15 17 17 18 18 18 17 15 15
5 2 2 2 2 5 7 7 7 8 9 8 7 6 4 4 3 2 3 3 3 4 5 6 7 8 11 13 15 15 16 17 16 19 20 22 29 30 25 23 22 21 19 18 17 15 14 12 12 12 11 12 14 14 16 17 19 20 19 18 17 16
6 4 3 2 2 3 5 7 7 7 8 7 6 6 5 4 4 3 3 3 3 3 4 5 6 7 8 9 11 11 13 16 17 22 24 23 25 26 27 24 21 21 20 19 19 17 17 15 13 14 12 11 11 13 16 18 20 21 20 19 18 17
6 5 3 3 3 2 4 8 8 7 8 7 5 6 5 3 4 3 3 4 4 5 5 5 5 6 8 8 9 9 9 10 12 17 20 23 24 23 25 25 22 21 20 18 17 17 20 18 15 14 13 9 8 9 13 17 21 22 21 20 18 18
6 4 2 2 3 3 5 8 8 7 8 8 5 5 4 3 3 4 4 4 5 6 6 7 6 6 7 8 8 9 9 10 11 13 14 18 24 25 25 26 27 28 25 20 17 18 21 22 19 15 11 8 8 8 8 12 18 21 22 21 20 20
7 5 3 1 3 4 4 5 4 3 5 6 5 5 4 4 5 5 5 6 6 7 7 8 8 8 8 8 8 9 10 11 12 14 14 16 22 27 27 26 29 34 33 26 22 21 22 23 23 20 15 10 8 8 7 10 13 15 19 22 21 21
8 6 4 2 2 3 3 3 4 4 4 5 5 5 5 5 5 5 6 7 8 7 7 8 9 9 9 9 10 10 10 11 12 13 14 15 18 22 24 25 29 34 35 32 27 21 20 22 24 24 22 17 12 8 6 8 9 7 13 19 20 21
9 7 7 5 1 3 3 2 4 4 4 4 4 3 3 4 4 5 6 7 8 8 8 8 9 9 10 10 11 11 11 12 12 13 13 15 17 18 19 24 29 34 35 34 32 26 21 22 23 24 25 22 20 15 10 9 8 6 8 12 17 20
11 9 8 7 3 3 3 1 2 3 3 3 2 2 2 3 4 5 6 7 8 8 8 8 9 9 10 11 11 12 12 12 13 14 13 15 17 18 20 22 26 31 34 33 34 33 27 24 21 22 23 23 22 20 17 14 12 10 8 7 11 16
12 10 10 9 5 3 3 1 1 2 2 2 1 1 1 2 3 4 5 7 7 8 8 8 9 9 9 10 11 11 12 13 14 15 14 15 16 17 20 22 24 28 32 33 35 37 35 30 24 18 19 20 21 22 21 20 17 15 13 10 8 10
14 11 11 10 7 5 3 2 1 1 2 1 1 1 1 1 2 3 5 6 7 7 7 8 8 10 10 10 10 11 12 13 14 15 16 16 16 17 18 20 23 26 31 33 34 35 39 38 31 22 20 19 19 21 21 20 20 19 17 14 11 8
14 12 12 11 8 6 4 3 3 2 2 1 1 1 1 1 2 3 4 6 6 7 7 8 9 9 11 11 11 12 12 13 14 15 16 17 17 17 17 19 21 24 29 33 32 33 36 38 35 29 27 24 21 21 22 20 21 22 18 15 12 9
15 13 12 11 9 7 6 5 4 2 2 1 1 2 2 3 3 3 4 5 6 7 7 8 8 9 11 12 12 13 13 13 14 14 16 16 17 17 17 18 19 21 26 31 33 34 34 35 35 33 32 30 28 25 25 25 24 23 21 18 15 11
16 14 12 11 10 8 7 6 4 3 3 2 2 3 3 3 4 4 4 5 6 7 7 8 8 9 11 12 13 13 13 14 15 15 16 16 17 18 18 19 19 19 22 26 31 36 37 36 36 37 36 34 33 31 29 29 26 23 23 22 19 14
15 14 13 12 10 9 8 7 5 4 4 3 3 3 4 4 5 5 5 6 7 7 8 9 9 10 11 12 14 15 15 16 16 16 17 17 18 18 19 20 20 20 21 23 27 32 36 38 39 40 40 38 37 36 35 33 29 26 25 23 21 17
16 15 15 13 11 10 9 7 6 5 4 4 4 4 4 5 5 6 6 7 8 9 10 10 10 11 11 12 14 15 16 17 17 18 18 19 19 19 19 20 21 21 21 22 24 27 32 37 41 42 43 42 41 39 39 37 32 29 28 25 22 22
18 16 16 14 12 11 9 8 6 5 5 4 4 5 5 6 6 7 8 9 9 10 11 11 11 12 12 13 14 16 16 17 18 18 18 19 19 20 20 20 21 22 22 22 22 25 30 34 38 39 41 44 44 42 41 39 36 34 33 29 24 24
18 16 16 15 12 11 10 8 7 6 6 5 6 6 6 7 8 9 9 10 11 11 12 12 12 13 13 13 14 16 17 17 18 18 19 19 20 21 21 21 22 22 23 23 23 24 26 29 33 35 38 42 44 45 45 41 39 38 36 34 30 28

ECMWFFLT2_925_spd_009.txt.gz
Wind_Speed
6 4 5 5 6 10 14 17 17 15 14 13 13 12 11 11 12 14 14 14 14 14 14 15 15 15 15 16 16 15 14 14 13 11 11 10 11 11 12 13 14 15 14 11 9 7 6 5 6 7 7 5 4 5 2 3 1 1 2 4 6 7
5 4 4 3 5 8 10 13 13 13 14 13 13 12 11 11 13 14 14 15 14 14 14 14 15 16 16 16 17 16 15 15 13 11 11 11 11 11 12 15 15 15 14 11 9 8 7 6 6 7 7 6 6 6 4 2 2 2 1 4 7 5
5 4 3 3 3 6 8 10 11 11 13 14 14 13 12 12 13 13 14 14 14 14 14 15 17 17 17 18 18 18 16 16 14 12 12 11 11 11 12 15 16 15 13 11 9 8 9 9 7 8 7 7 7 7 5 4 3 3 2 4 6 3
4 4 3 3 2 5 8 9 10 12 14 15 15 13 12 12 13 13 13 13 13 14 14 15 16 16 17 18 18 18 18 16 14 13 12 12 11 11 12 14 17 15 13 12 9 7 9 11 9 9 9 8 8 7 5 5 5 4 3 5 7 2
4 4 3 3 3 3 8 9 9 12 14 15 16 15 12 11 12 11 11 12 12 13 14 15 15 16 16 16 17 19 20 17 16 14 14 13 13 13 12 14 16 15 13 12 9 6 8 9 10 9 9 9 8 7 5 5 5 4 4 7 6 2
4 3 3 3 4 4 6 9 10 10 12 15 14 13 12 12 12 11 12 13 12 11 12 14 14 15 15 16 17 19 20 18 16 16 16 14 14 15 14 15 16 15 14 11 8 7 7 7 9 9 9 9 8 7 6 6 6 4 4 6 5 4
4 3 3 3 4 5 4 5 8 9 9 12 11 11 11 12 12 12 15 16 13 10 11 11 13 14 15 17 17 18 20 18 16 17 17 15 14 16 15 15 15 14 13 10 8 8 7 7 8 8 8 9 9 8 7 7 6 5 5 5 5 5
5 4 3 4 4 5 5 5 6 7 8 11 10 10 12 13 12 12 16 16 12 10 11 9 11 12 13 15 15 17 19 18 18 17 17 15 14 15 15 14 14 13 12 10 9 9 8 8 8 8 8 10 9 8 8 7 7 6 6 6 6 6
6 4 4 3 4 5 5 5 5 4 6 10 9 11 12 10 9 11 14 13 10 11 12 9 10 11 9 10 11 15 19 20 20 17 16 15 14 15 15 14 13 12 11 9 9 9 9 9 9 9 9 10 10 9 10 8 7 7 7 6 7 7
6 5 4 3 4 5 5 5 5 5 3 4 6 10 10 7 8 9 10 11 11 13 12 11 12 13 10 9 8 12 17 20 19 17 16 14 13 14 14 14 13 12 11 9 9 9 9 9 10 10 10 10 11 11 11 10 8 8 8 7 8 8
7 7 5 5 5 4 4 4 4 3 4 3 1 4 5 6 8 8 8 9 12 14 12 12 14 14 12 10 9 10 13 16 17 16 16 13 12 12 13 12 12 11 11 10 10 9 9 9 9 11 11 11 11 11 11 11 10 9 9 8 8 7
8 7 7 6 6 5 5 4 3 3 2 2 1 1 2 3 6 8 9 8 9 11 11 10 12 13 13 13 12 12 11 11 14 15 13 10 10 11 11 11 12 11 10 10 9 9 9 9 9 10 11 12 12 12 12 12 11 11 10 9 8 8
8 8 8 7 6 6 5 4 4 3 3 2 1 1 1 2 3 6 8 8 8 8 8 8 9 11 13 13 14 15 13 10 12 13 11 10 10 11 11 11 11 11 9 9 9 9 9 10 10 10 11 12 12 12 12 12 12 12 11 10 9 9
8 8 8 8 7 7 6 5 4 4 3 3 2 1 1 2 3 4 5 6 6 6 7 8 9 10 12 13 13 14 14 13 13 12 9 10 11 11 11 11 11 10 9 10 10 10 10 11 11 11 11 11 12 12 12 12 13 13 12 11 10 9
8 8 9 8 8 7 7 6 6 5 4 3 2 2 2 2 3 3 4 4 5 6 7 8 10 10 11 13 13 13 13 13 14 14 12 11 12 11 11 11 11 10 10 11 11 11 11 11 12 11 12 12 12 12 12 12 13 13 13 12 11 10
7 7 8 8 7 7 6 6 6 6 5 4 3 2 2 3 3 3 3 3 3 4 5 7 9 10 10 12 14 14 13 14 15 16 15 12 13 13 11 12 11 10 11 11 12 12 11 11 12 12 11 12 12 12 12 13 13 14 14 13 13 12
6 6 5 6 6 6 6 6 6 6 5 5 3 3 3 3 3 3 3 3 3 4 4 5 7 9 10 13 15 15 13 15 18 18 15 13 14 14 11 11 11 12 12 12 12 13 12 11 11 11 12 12 13 13 13 14 14 14 15 15 14 13
6 5 4 3 3 4 5 5 5 6 5 5 3 3 3 2 2 3 3 3 4 4 4 4 6 7 10 13 14 16 15 15 17 18 17 15 15 15 13 13 12 12 13 14 14 14 14 13 11 11 11 13 14 13 14 14 14 15 16 16 16 15
6 4 4 2 1 1 3 4 6 6 6 6 4 4 3 2 2 2 2 3 4 4 4 4 4 5 7 10 12 16 17 14 13 16 17 17 17 15 15 17 15 13 13 15 15 14 15 13 11 11 11 12 14 14 14 13 14 16 17 17 17 16
6 4 3 1 1 2 3 4 6 6 7 7 6 4 3 2 2 2 2 3 4 3 4 4 4 4 5 7 9 12 15 14 12 12 14 18 20 18 16 17 17 16 16 17 17 15 15 14 12 11 11 11 12 14 14 15 15 16 17 17 18 17
6 4 3 2 3 3 4 4 5 6 7 7 7 6 2 2 2 2 2 3 3 3 3 4 4 4 5 5 7 9 11 13 13 12 13 15 17 18 18 16 16 17 18 19 18 16 14 12 14 13 11 11 12 14 14 15 16 16 17 17 18 19
8 6 4 3 3 3 4 4 4 5 6 6 7 6 4 3 3 2 2 2 2 3 3 4 4 4 5 5 6 7 8 10 12 12 14 15 15 17 17 17 18 20 20 20 20 19 17 13 15 15 11 10 11 14 15 16 17 18 18 18 18 20
9 8 6 5 4 4 3 4 4 5 6 6 5 5 3 2 2 2 1 1 1 2 4 4 5 4 5 5 6 7 7 8 10 11 13 14 16 17 18 20 23 23 20 20 21 21 20 16 16 16 11 9 8 9 11 14 18 20 19 19 19 20
10 9 8 7 6 5 4 3 4 3 4 4 3 4 3 2 2 3 2 2 2 3 5 5 6 6 6 6 6 7 8 9 10 11 11 12 14 16 18 21 24 23 21 21 20 20 19 16 16 15 10 8 8 8 8 10 15 19 20 20 21 21
12 10 9 9 8 7 5 4 3 2 2 2 3 4 4 4 4 3 3 2 3 4 5 6 6 6 7 7 7 8 8 9 10 12 12 13 14 14 16 18 21 24 23 23 22 21 20 19 21 20 14 9 7 6 7 9 12 14 19 21 21 22
13 11 11 10 9 7 5 4 4 2 2 1 2 4 4 3 3 3 3 3 3 4 5 6 7 7 7 7 8 8 8 9 10 11 13 13 14 13 14 16 19 22 23 25 26 21 19 22 27 27 24 20 16 11 10 10 8 8 14 20 20 21
13 12 12 11 10 8 6 5 4 3 2 1 2 3 2 2 1 2 3 3 4 4 4 6 7 7 8 8 8 9 9 10 11 11 13 14 14 14 15 16 17 19 21 24 27 25 21 21 25 29 32 32 26 22 19 15 10 7 8 13 18 19
14 12 12 12 10 8 7 6 5 4 3 2 3 3 2 2 1 1 2 3 3 4 5 5 6 7 8 9 9 10 10 10 11 12 12 13 14 14 15 16 17 18 21 23 26 29 28 24 23 25 31 33 26 21 22 21 17 14 8 5 11 16
14 13 13 13 12 10 8 7 6 5 4 3 3 3 3 2 1 1 1 2 3 4 4 4 6 6 7 8 9 10 11 12 12 12 13 14 15 15 15 17 17 18 21 24 27 30 31 28 27 25 23 27 25 19 19 22 22 19 14 9 7 8
15 14 13 14 12 11 9 8 6 6 5 4 4 3 2 2 2 2 1 2 2 2 3 3 4 5 6 8 9 10 11 13 13 14 14 14 15 16 16 17 17 19 20 23 25 26 29 29 30 28 21 21 23 20 16 16 18 20 17 13 11 8
16 15 14 14 14 12 10 9 7 7 6 6 5 4 4 3 3 3 2 2 2 2 3 3 4 5 5 6 8 9 11 13 14 15 16 16 16 16 17 17 17 18 19 21 22 22 26 28 29 29 25 22 24 23 18 14 15 18 17 14 12 10
17 16 15 15 15 13 11 9 8 8 7 7 6 5 5 4 4 4 4 3 3 4 4 4 4 5 5 6 7 9 10 12 13 15 16 17 17 16 16 17 17 18 18 20 20 20 23 27 29 29 28 27 27 26 24 21 19 19 17 16 14 10
18 18 16 15 15 14 13 11 10 9 8 8 7 6 5 5 5 4 5 5 4 5 5 5 5 6 6 7 8 9 10 11 13 14 16 17 18 18 17 17 18 18 19 20 19 20 24 28 31 30 30 32 32 29 27 25 24 21 16 16 14 9
18 18 17 16 16 15 14 13 12 11 10 9 8 7 6 5 5 5 5 5 6 6 6 7 7 8 8 8 9 10 11 12 14 15 16 17 18 19 19 19 19 19 20 21 20 19 23 27 29 31 32 34 35 35 32 28 26 27 24 20 16 12
18 19 18 17 17 17 15 14 13 12 11 10 9 8 7 6 6 6 6 6 7 7 8 8 9 9 9 10 11 12 12 13 14 15 16 17 18 19 20 20 20 20 20 21 21 21 21 22 25 29 32 33 34 36 37 34 31 30 31 26 21 19
19 19 19 18 17 17 16 15 14 13 12 11 9 8 7 7 6 6 6 7 8 8 9 9 10 10 11 12 13 13 14 14 15 15 16 17 18 19 19 20 21 21 21 21 21 22 22 22 23 25 29 31 33 33 34 38 37 33 33 30 25 24
18 19 19 18 17 17 16 15 15 14 13 11 10 9 8 7 7 7 8 8 9 9 10 10 11 11 12 13 14 14 15 15 15 16 16 17 18 19 20 21 21 22 22 22 22 22 23 24 24 25 27 31 35 35 32 36 39 37 35 33 29 27

ECMWFFLT2_925_spd_015.txt.gz
Wind_Speed
11 11 12 13 12 12 11 10 9 9 9 8 8 8 7 8 8 9 9 8 8 9 9 10 10 8 8 8 7 7 7 7 7 7 6 6 6 5 6 6 7 9 11 10 9 8 7 6 6 9 11 10 8 11 12 11 9 14 13 12 10 10
12 11 12 12 12 13 13 11 10 10 10 9 9 8 7 8 8 8 8 8 8 9 10 10 9 9 9 9 9 8 8 8 7 7 6 6 6 6 6 7 8 9 10 9 9 8 8 7 7 10 12 12 9 11 10 10 8 11 11 12 10 10
11 9 9 10 11 12 13 13 12 12 11 10 9 8 7 7 7 7 8 8 8 9 8 8 8 9 9 10 9 8 8 8 8 7 6 5 6 6 6 8 8 9 10 9 9 9 8 8 7 10 15 14 11 10 8 9 9 11 11 12 11 10
9 9 8 7 9 11 12 14 14 14 13 12 11 10 8 7 6 5 6 7 8 9 8 8 8 8 9 9 10 9 9 9 8 8 6 5 5 6 7 8 8 10 10 10 10 9 8 7 6 8 13 15 12 11 8 7 8 10 12 12 10 9
7 7 6 6 8 10 11 13 15 15 14 13 12 11 9 8 7 6 8 9 9 10 10 10 9 9 10 11 11 11 11 10 10 10 8 6 6 6 7 8 8 10 11 11 11 10 8 7 6 5 11 14 12 11 7 4 7 9 10 11 10 8
9 5 4 6 8 9 10 11 14 14 13 14 13 12 11 10 9 9 11 12 11 10 10 12 11 11 12 12 13 13 13 13 11 11 9 7 7 7 8 9 9 10 12 12 11 11 9 8 7 4 10 13 10 9 6 4 8 8 9 11 10 9
10 8 6 8 9 9 9 11 14 13 12 14 14 13 13 12 11 11 10 12 11 9 11 12 11 11 12 13 13 14 14 14 13 11 10 9 9 8 9 9 11 11 11 12 12 12 11 12 11 5 9 10 7 6 5 7 10 8 10 11 9 9
9 10 8 10 11 10 9 10 12 11 11 12 14 13 13 13 12 12 9 10 11 10 11 12 10 10 12 13 13 14 15 15 15 14 12 10 9 9 10 11 11 11 10 11 12 12 12 13 13 7 6 7 5 4 6 9 10 10 12 10 9 8
8 11 11 11 11 10 10 9 9 10 10 10 12 12 13 13 12 13 10 8 10 10 9 9 9 9 11 13 13 14 15 16 17 15 13 12 11 9 10 11 12 12 10 10 9 9 11 11 11 8 6 6 5 5 8 10 10 11 13 9 8 7
9 12 14 13 11 10 9 8 8 8 9 9 10 10 9 11 10 12 11 6 7 8 7 8 9 9 12 13 13 13 15 18 17 16 14 16 15 11 12 12 12 14 13 12 10 8 11 13 11 9 9 10 9 8 11 11 10 12 13 10 8 8
10 12 13 13 12 11 10 9 10 10 8 7 7 6 6 8 9 9 10 6 4 6 7 8 9 10 12 12 12 12 14 17 19 17 15 18 17 11 15 16 14 16 16 16 14 11 14 15 10 8 8 12 11 8 11 13 11 12 13 12 10 9
12 11 11 12 12 11 10 11 12 11 9 8 6 5 6 6 7 6 6 5 3 6 7 8 8 9 11 12 12 12 13 15 16 18 16 18 17 10 14 19 17 18 19 19 15 12 17 16 10 10 7 9 10 8 9 13 14 13 13 13 12 12
13 12 11 11 12 11 9 10 11 10 8 6 6 6 8 7 5 4 3 2 2 4 7 6 8 10 11 12 12 11 12 12 12 17 18 18 18 12 12 18 18 18 18 17 13 10 15 16 11 12 9 8 9 8 8 11 14 15 13 13 13 13
13 13 12 12 11 11 10 9 8 8 9 8 6 7 8 6 4 3 4 4 2 2 5 6 8 10 10 12 13 11 10 10 10 15 18 18 20 16 14 17 18 17 16 15 14 10 11 16 13 10 10 10 10 10 10 11 14 17 16 14 14 14
13 13 13 13 11 11 10 8 7 9 10 9 7 7 6 4 3 3 5 4 3 3 4 5 7 9 10 11 11 11 9 9 10 13 15 17 20 19 16 17 17 16 15 14 15 11 8 14 15 11 9 10 11 11 12 13 13 16 19 17 16 16
14 14 14 14 13 12 10 9 9 10 10 9 8 7 6 5 5 4 6 7 6 5 5 4 4 6 9 10 10 9 8 9 12 13 14 15 19 19 16 17 17 15 12 10 12 12 9 11 13 12 9 9 11 11 11 13 12 14 19 19 18 16
17 16 16 15 14 12 12 13 12 11 9 8 7 7 6 5 6 6 8 10 8 7 6 5 3 2 6 8 8 8 8 10 12 14 15 15 17 17 15 15 16 14 12 11 10 11 10 9 13 15 14 13 13 12 12 13 12 12 16 19 18 18
17 17 16 15 14 12 11 13 12 9 8 8 7 8 6 5 5 5 6 7 5 5 6 5 4 2 2 5 4 5 9 10 11 13 15 16 16 15 14 14 14 13 14 15 13 12 11 8 11 13 15 17 17 15 14 14 14 11 13 16 18 19
16 16 16 13 12 11 9 10 10 8 7 7 8 7 4 4 4 3 3 2 2 4 5 5 6 5 3 1 3 3 6 9 11 12 13 13 12 12 13 14 14 14 15 16 16 15 12 7 7 8 9 14 18 19 17 16 16 14 13 15 17 19
15 15 16 13 11 11 9 9 9 9 8 5 5 4 3 1 2 1 1 1 3 5 3 3 4 4 4 3 2 3 4 6 8 9 12 12 11 9 10 13 15 16 14 14 17 18 15 9 8 9 9 10 13 19 20 17 17 18 16 15 18 20
16 14 13 10 10 11 10 11 10 9 9 6 5 4 3 2 2 2 2 1 2 4 4 3 3 2 2 3 3 2 3 4 5 5 5 9 13 11 11 12 12 15 15 13 15 18 18 14 11 9 9 9 9 14 21 21 18 18 19 18 18 20
16 13 9 9 11 13 13 12 10 9 8 7 8 5 3 3 2 3 4 2 1 2 3 4 5 4 3 2 1 1 1 1 4 5 4 4 10 11 11 12 11 15 17 14 14 16 16 15 12 9 6 5 6 8 17 23 21 18 18 20 20 20
16 13 10 12 15 15 15 13 11 9 8 7 8 6 5 6 5 5 5 5 3 1 2 2 3 3 3 4 3 2 2 1 3 4 4 3 5 7 9 11 12 14 14 13 14 14 14 14 14 10 4 2 2 3 7 14 19 20 19 20 21 22
17 14 13 14 14 13 13 12 11 10 9 7 6 6 6 6 5 4 3 2 0 4 4 3 2 1 2 4 3 2 3 1 2 4 3 3 3 5 7 8 9 10 11 13 14 14 14 14 15 11 4 2 2 2 3 6 13 20 23 22 22 24
19 17 16 15 14 14 14 13 12 11 11 9 7 7 6 6 5 3 3 4 2 5 5 3 3 2 2 4 3 2 3 2 2 3 3 3 4 5 6 6 7 8 10 12 14 16 17 17 17 15 9 4 2 2 3 3 6 14 21 23 24 25
20 19 18 16 16 16 15 15 14 14 14 12 10 10 8 7 6 5 5 5 3 3 2 3 3 1 2 4 4 4 4 4 3 3 4 5 5 6 6 7 7 10 12 12 13 16 19 19 17 17 18 16 10 4 1 1 0 5 11 17 23 26
22 21 21 19 18 18 16 15 14 14 15 13 13 12 10 8 7 5 4 4 4 2 1 2 3 3 2 2 3 4 4 4 4 4 5 6 7 8 8 8 8 9 11 13 14 16 18 18 15 17 22 24 21 14 6 2 2 2 3 7 14 21
23 22 22 21 20 18 17 16 14 13 13 14 15 13 9 8 7 5 4 4 4 2 1 2 2 2 3 3 2 3 4 5 5 5 5 6 7 8 9 10 11 10 10 11 13 16 18 17 15 16 19 21 24 23 17 14 15 9 2 3 7 12
25 24 24 23 21 19 18 16 15 14 12 13 14 12 9 8 8 7 5 5 4 4 3 2 2 2 2 3 4 4 5 5 6 7 8 9 9 10 11 12 13 13 12 12 12 14 16 17 17 18 18 18 20 22 20 21 24 18 9 6 5 5
27 26 25 24 22 20 18 17 18 16 14 14 14 11 10 10 10 8 7 6 5 5 3 2 2 1 2 3 3 4 4 5 6 7 9 10 12 13 14 14 14 15 16 16 16 16 15 16 17 18 19 18 18 17 14 13 18 20 14 10 8 7
28 27 25 25 24 21 20 20 20 18 16 16 15 13 13 15 13 11 9 8 5 5 5 4 4 3 3 3 4 3 3 4 6 7 9 9 10 12 14 15 15 16 17 17 18 18 19 18 18 19 20 20 21 20 17 14 17 20 15 11 8 7
29 28 26 26 25 23 22 21 21 20 18 18 17 16 17 19 16 14 12 11 8 7 7 7 7 5 4 4 5 3 3 5 8 10 10 10 10 11 12 14 17 18 19 18 17 18 20 20 20 20 20 21 23 24 24 23 22 21 17 15 12 6
30 29 28 27 26 25 24 22 21 21 20 19 19 19 19 18 16 16 15 13 12 10 9 8 8 6 5 5 6 6 7 9 11 11 11 12 13 13 14 15 18 20 22 22 21 19 20 20 21 21 20 20 22 23 25 26 25 23 20 20 16 10
31 30 29 28 27 27 26 24 23 22 22 21 20 21 20 18 17 17 16 14 13 13 11 10 9 8 8 8 9 10 12 12 12 13 14 15 16 17 18 18 19 20 22 23 23 23 23 23 22 21 21 21 21 22 23 25 26 25 24 22 19 14
32 31 30 30 29 28 27 26 25 23 23 23 21 20 19 18 17 17 15 14 13 13 13 11 10 10 10 10 10 11 12 13 14 15 16 16 16 17 17 18 19 20 20 21 21 22 24 25 24 23 22 23 23 23 23 24 24 26 26 25 24 23
33 32 31 31 30 29 28 27 26 24 23 23 22 20 19 18 17 16 15 15 14 13 12 12 11 11 10 11 11 12 13 14 15 16 16 16 16 16 16 17 19 20 20 20 21 22 22 24 25 25 24 24 25 25 24 24 24 25 26 27 26 26
32 32 32 31 31 30 28 27 26 25 24 23 23 22 20 19 17 15 15 16 15 13 13 12 11 11 11 11 12 12 13 14 14 15 16 16 16 16 16 17 18 19 20 20 21 22 22 23 24 24 24 24 25 26 26 25 25 25 26 28 28 27

ECMWFFLT2_925_spd_021.txt.gz
Wind_Speed
12 12 12 12 12 12 12 11 11 11 11 11 11 11 10 10 10 9 11 11 9 9 9 9 9 9 9 9 10 9 9 9 10 10 9 8 8 8 8 9 9 8 11 14 10 9 11 9 6 6 6 5 4 8 12 15 16 13 10 8 6 5
12 12 12 11 12 12 12 12 11 11 11 11 11 11 10 10 10 11 12 11 9 8 8 8 9 10 9 9 9 9 8 9 10 10 9 8 8 7 8 9 10 10 12 14 11 10 11 10 7 6 7 6 4 8 13 15 16 13 10 9 7 5
13 13 13 12 12 12 12 12 11 11 11 11 11 11 11 11 10 11 12 10 9 8 9 9 10 10 9 9 9 8 8 10 10 9 8 8 7 7 8 9 10 12 13 13 11 10 11 10 8 7 8 7 5 8 13 14 14 13 10 9 7 6
13 13 13 13 13 12 12 12 12 11 12 12 11 11 11 11 10 11 12 10 9 9 10 10 10 10 9 9 9 8 9 10 10 8 8 8 8 7 9 10 11 13 13 14 13 10 10 9 8 7 8 8 6 7 13 14 14 13 11 9 7 6
12 12 12 13 13 13 13 13 12 12 12 12 12 12 12 11 11 11 11 11 11 11 11 11 11 10 10 11 11 10 10 10 10 9 9 8 9 9 10 12 12 14 14 14 13 11 9 8 7 6 8 9 7 7 11 14 14 13 11 9 7 6
11 11 11 12 13 13 13 13 14 13 13 13 13 13 13 12 12 12 12 11 12 12 12 12 12 11 12 12 12 12 12 12 11 11 11 9 9 10 11 13 13 15 14 13 12 10 8 7 6 5 7 10 8 7 9 13 14 13 12 10 8 7
10 10 9 10 11 12 12 13 14 14 14 14 14 14 14 13 13 12 12 12 12 13 13 13 13 12 12 12 13 13 13 13 13 12 11 10 10 10 11 13 14 15 14 12 11 9 7 6 5 4 6 9 9 8 8 10 13 13 12 11 9 8
9 8 7 8 9 10 10 11 12 13 14 14 14 14 13 13 13 13 12 11 11 12 13 13 13 12 11 12 12 14 14 15 14 12 12 11 10 10 11 12 14 14 13 12 11 9 7 5 5 4 5 9 10 9 8 8 11 14 13 12 10 8
10 9 7 7 8 9 9 10 11 12 13 14 15 14 13 13 13 13 11 10 10 11 13 13 13 12 12 12 13 14 15 15 14 13 13 12 11 10 11 12 12 12 13 13 12 9 8 6 5 4 5 9 10 10 9 7 9 12 13 12 11 9
10 9 8 8 7 7 8 9 10 11 12 14 15 14 14 13 13 12 10 9 9 11 13 13 13 14 14 14 14 15 16 17 15 14 14 13 12 11 11 12 12 12 12 12 12 10 8 7 6 5 6 8 10 10 10 9 9 11 13 14 12 11
11 10 9 9 8 6 6 7 8 9 11 13 15 15 15 14 13 12 10 9 9 10 12 12 13 14 15 15 16 17 18 17 15 14 14 14 13 12 11 11 12 13 13 13 12 11 10 9 8 7 7 9 10 11 11 10 10 11 14 15 14 13
12 12 11 10 9 8 7 6 7 7 8 9 11 13 15 15 13 11 11 10 10 11 11 12 13 14 16 16 16 17 17 16 16 16 16 15 14 13 11 11 12 12 13 14 13 12 12 12 12 11 10 11 13 14 13 11 11 11 13 16 17 15
12 12 11 11 10 10 9 8 6 5 5 4 4 6 9 12 11 10 10 9 10 11 11 12 13 15 16 15 15 15 15 16 18 18 17 16 16 15 12 9 9 10 11 12 13 12 11 12 13 13 13 14 15 17 16 14 13 12 14 17 18 18
11 11 12 12 12 12 11 9 7 5 5 6 4 4 6 8 9 9 8 7 7 8 9 11 12 13 14 13 12 13 14 16 17 17 15 15 17 17 16 12 9 8 9 11 13 12 10 11 13 15 15 16 17 18 18 17 16 16 16 17 19 20
12 12 12 13 13 12 10 8 7 6 7 7 6 5 6 6 6 5 5 4 4 4 5 7 8 11 12 11 10 12 14 14 13 13 14 16 17 17 18 18 14 11 12 13 14 13 11 11 13 16 17 16 18 20 19 19 19 18 18 19 20 21
13 13 13 14 14 12 10 8 8 8 9 9 7 5 4 5 6 5 4 4 3 2 2 2 4 6 7 8 10 12 13 12 10 10 13 15 16 17 19 20 18 15 15 15 15 15 13 12 11 13 14 16 19 21 21 21 19 17 17 20 22 23
15 14 14 15 14 12 10 9 9 10 10 9 6 5 3 4 7 6 5 4 2 1 1 0 1 2 3 6 9 10 10 11 11 11 12 13 14 15 17 18 18 17 17 16 16 15 14 12 9 8 9 14 18 21 22 22 18 15 15 18 22 24
17 15 14 14 13 12 12 11 10 10 9 7 6 5 4 5 8 7 5 5 4 3 3 3 2 1 1 5 7 6 6 9 12 11 9 10 11 11 13 15 17 18 18 18 17 15 14 13 10 7 6 8 14 19 21 19 17 16 15 16 19 22
18 16 15 14 14 14 13 12 10 9 8 8 7 7 6 7 8 7 5 5 4 3 4 4 5 4 1 3 4 4 3 3 8 9 8 9 8 7 9 11 14 16 17 18 17 16 16 15 13 11 8 5 7 12 17 17 17 17 17 16 17 19
19 18 18 18 17 17 15 13 11 9 9 9 9 8 8 7 7 6 5 4 3 1 0 1 2 3 3 2 3 4 3 3 1 4 6 7 7 8 8 7 9 12 14 17 15 14 15 16 16 16 12 7 6 8 12 15 17 18 18 17 16 18
20 20 20 20 19 18 16 14 12 11 11 10 8 6 6 5 5 4 4 3 2 1 2 1 1 1 1 1 2 4 4 4 5 4 4 2 2 5 9 9 7 7 10 13 11 9 9 10 12 13 11 9 9 9 10 12 15 17 19 19 18 18
23 23 21 20 19 17 16 14 13 12 11 10 7 5 6 5 4 4 3 2 1 0 1 1 1 1 2 2 2 3 6 7 8 8 9 9 8 6 3 7 6 5 6 8 7 7 9 7 5 4 6 7 8 10 11 11 13 15 17 19 20 20
26 25 22 19 18 17 15 13 12 11 11 10 8 7 7 6 4 3 3 2 2 2 2 2 3 3 4 5 4 4 6 8 10 10 10 12 11 11 8 5 5 6 6 7 7 7 7 7 5 4 5 4 3 4 6 7 10 14 17 18 20 21
27 25 23 20 17 16 14 13 12 11 11 10 10 9 8 6 5 3 3 3 3 2 2 1 1 3 4 5 5 6 7 8 10 10 10 12 13 13 13 11 10 9 7 6 5 6 4 3 4 4 3 2 1 2 2 3 7 10 14 18 21 22
28 25 23 20 18 16 15 15 14 12 11 10 10 10 8 7 6 4 3 3 2 3 3 3 3 2 2 2 3 4 5 7 8 8 8 10 11 11 12 12 13 13 12 9 7 6 5 6 5 2 2 1 1 2 2 3 7 6 8 11 16 20
28 26 23 21 19 17 17 18 17 15 14 13 12 10 8 8 6 4 3 3 3 5 6 5 4 2 1 0 0 1 2 5 6 6 7 7 8 8 9 11 11 12 13 12 10 10 10 10 8 6 6 4 4 4 3 4 4 3 7 10 9 10
28 26 24 22 20 19 19 20 18 17 15 14 13 11 9 8 6 4 4 3 3 5 6 6 6 4 3 1 0 1 1 2 4 4 4 5 6 7 8 9 9 10 11 11 11 12 12 12 9 9 9 8 7 7 6 5 2 2 5 8 10 13
29 27 25 23 22 21 22 21 19 17 15 14 13 11 10 9 7 6 5 4 4 5 4 5 6 5 4 2 2 2 2 3 4 5 5 5 7 7 7 7 8 8 9 10 11 11 10 10 10 10 10 9 8 8 7 7 7 5 3 4 9 15
29 28 25 24 23 23 24 22 19 17 16 14 12 11 11 10 9 8 7 6 6 5 4 4 5 4 4 3 3 4 5 6 6 7 6 7 7 7 8 9 9 9 9 10 10 10 9 9 10 10 9 9 9 9 8 6 6 7 5 4 4 6
31 29 26 25 25 25 25 24 20 18 17 16 15 13 13 12 12 10 9 8 6 6 5 4 4 4 3 3 4 4 4 5 6 7 7 7 8 8 9 10 10 10 10 10 10 10 9 9 9 9 8 9 9 9 8 5 5 5 5 6 5 4
33 30 28 27 27 27 27 24 22 20 18 18 17 16 16 15 14 13 11 9 7 6 6 5 4 4 3 2 2 2 3 4 5 7 8 9 9 9 10 10 10 10 9 10 10 10 9 9 9 8 8 8 8 8 7 5 7 9 8 6 6 5
34 32 31 30 30 29 27 26 24 22 20 19 19 19 18 17 16 15 13 10 8 8 7 6 5 4 3 2 2 1 1 2 4 7 8 9 10 11 11 11 10 10 10 10 9 10 10 10 10 10 9 9 9 8 8 8 9 11 11 11 10 6
36 35 33 32 32 30 29 27 25 23 22 20 20 20 19 19 17 15 13 11 10 9 8 7 6 4 3 2 2 2 2 2 4 7 9 10 11 11 11 11 11 11 11 11 11 11 11 11 11 10 10 10 10 10 10 10 10 10 11 13 13 9
37 36 35 34 33 32 31 29 27 25 24 22 21 21 20 20 19 16 14 13 11 10 9 8 6 5 4 4 4 4 3 3 5 7 9 10 10 10 10 11 12 12 12 12 12 11 11 11 11 11 10 10 11 11 12 12 11 11 11 12 13 11
36 36 36 35 34 34 32 30 29 27 25 24 23 22 21 21 20 18 16 14 13 12 11 9 8 7 7 8 7 5 4 5 6 8 9 9 9 8 9 10 11 12 12 12 12 12 12 12 12 12 12 12 12 12 12 12 12 12 11 12 14 14
36 36 37 37 36 35 34 32 30 29 27 26 25 23 23 23 22 20 18 16 15 14 12 10 9 9 9 8 7 6 6 7 8 9 9 9 8 8 9 10 11 12 13 13 13 12 12 12 12 12 12 13 13 13 13 12 11 11 11 11 12 14
34 34 36 38 38 36 35 33 33 31 28 27 27 25 25 25 23 22 21 18 17 15 13 11 11 11 10 8 8 7 8 9 9 9 9 9 8 8 9 11 12 12 13 13 13 13 13 13 13 13 13 13 14 14 14 13 12 11 11 12 12 12

ECMWFFLT2_925_spd_024.txt.gz
Wind_Speed
14 14 14 13 12 11 11 10 10 10 10 11 11 10 10 11 10 9 10 11 10 9 11 11 11 11 11 10 10 10 9 9 10 12 11 8 8 8 9 10 10 10 11 12 11 10 10 10 10 8 5 4 5 9 11 12 12 10 9 7 6 5
13 12 12 12 12 11 11 11 10 10 10 10 10 10 11 11 10 9 10 12 11 9 10 11 10 11 10 10 9 9 9 9 10 12 11 9 8 8 8 10 10 9 10 12 11 10 10 10 10 9 6 4 5 9 12 14 12 10 9 8 6 5
12 11 11 10 11 11 11 11 11 11 10 10 11 11 11 11 10 10 11 11 11 9 9 9 10 10 9 9 9 9 9 9 10 11 11 9 8 8 7 9 10 9 9 13 12 10 9 10 10 10 7 4 5 8 12 14 13 11 9 7 6 5
10 10 10 10 10 11 11 11 11 11 11 11 11 12 11 11 10 10 11 11 11 9 9 9 9 9 9 9 9 9 9 9 10 10 11 10 9 8 7 8 10 10 10 12 12 10 8 8 9 10 7 4 4 7 11 13 14 12 10 8 6 5
10 9 10 10 10 10 11 11 11 11 11 11 12 13 12 11 10 10 11 11 10 9 9 9 9 9 10 10 10 10 10 10 10 11 11 11 10 9 8 10 11 12 12 12 11 9 7 7 8 9 8 5 4 7 10 12 14 13 10 9 7 5
9 9 9 9 10 10 10 11 11 11 10 11 12 13 13 12 11 11 12 11 10 10 11 10 10 10 11 11 12 12 11 12 11 12 13 12 11 10 10 11 12 14 14 12 10 8 7 6 6 8 9 7 5 6 9 12 13 13 11 10 8 6
9 8 8 9 10 10 10 11 11 10 10 11 12 12 12 12 11 11 12 12 12 12 12 12 12 12 11 12 13 13 13 13 12 12 13 12 11 10 10 11 12 14 14 13 10 7 6 5 5 7 9 9 7 6 8 11 13 12 12 11 9 7
8 8 7 7 8 9 10 11 11 12 12 12 12 12 12 11 11 12 12 13 13 13 13 13 13 12 12 12 12 13 14 14 13 13 12 11 10 10 10 11 12 14 14 13 10 8 7 6 5 5 8 10 9 7 7 9 11 12 12 11 10 8
8 8 7 6 7 8 9 9 10 12 12 12 13 12 11 11 11 12 12 12 12 12 13 13 14 13 13 13 13 14 15 14 14 13 12 11 10 9 9 10 11 13 14 13 10 9 7 6 5 4 6 9 10 9 8 7 9 11 11 11 11 10
9 8 7 6 6 7 7 7 8 9 9 10 12 11 11 12 13 13 12 12 11 11 12 12 13 13 14 14 14 14 12 12 15 15 12 12 10 9 9 9 10 11 12 12 11 9 8 7 6 5 5 7 10 11 10 8 7 9 11 12 12 11
10 9 8 7 6 6 6 7 8 8 7 9 11 12 13 13 13 13 12 11 9 9 10 11 13 14 14 14 12 11 12 12 14 13 12 12 10 8 8 9 10 10 10 11 11 10 8 8 7 6 7 7 8 10 11 10 9 9 10 12 13 13
10 10 9 8 7 7 6 6 7 7 6 8 10 12 14 14 13 13 12 11 9 9 10 11 13 14 13 14 12 12 14 12 9 10 13 13 12 11 11 10 11 11 11 11 11 11 9 9 8 8 8 7 8 10 11 12 11 10 10 11 13 13
11 10 10 9 8 7 6 6 5 5 5 6 6 6 9 12 14 15 13 12 11 11 12 12 11 10 12 14 12 11 12 12 10 9 12 15 16 15 13 12 12 11 11 12 12 11 10 9 9 8 8 8 8 10 12 13 13 12 11 11 12 14
12 11 10 10 9 8 7 6 5 5 5 4 3 2 3 6 9 11 12 11 10 10 11 10 6 5 10 12 9 9 10 12 12 9 9 15 17 16 13 12 11 10 10 11 11 11 10 10 9 9 9 10 10 10 13 14 14 14 13 12 12 14
13 13 12 11 10 9 8 7 6 6 6 5 4 4 3 3 3 3 4 6 6 7 7 6 3 3 7 8 6 8 11 12 12 10 8 12 16 16 15 14 13 12 11 10 10 10 10 10 9 9 10 11 12 12 14 15 16 15 14 13 14 15
13 13 12 12 11 11 9 8 7 7 7 5 4 4 4 3 2 2 2 1 1 2 2 3 4 4 3 3 4 6 8 9 10 10 9 9 12 14 17 19 17 16 14 11 11 10 10 10 10 9 8 10 10 12 14 15 16 16 15 15 16 16
12 13 13 13 12 10 9 8 7 8 7 6 4 4 3 4 4 4 3 3 3 2 2 1 3 3 3 3 4 5 5 6 8 11 10 8 11 13 15 18 18 18 17 15 13 12 11 11 11 10 8 7 9 9 13 15 16 17 18 17 16 16
13 14 13 13 12 10 9 8 8 8 7 6 4 3 3 5 7 5 5 5 5 4 4 3 3 4 4 4 5 5 4 4 6 8 8 10 12 12 10 12 16 18 16 15 15 14 13 13 12 12 11 8 8 7 10 15 17 18 19 18 17 15
14 15 15 14 12 11 10 9 9 9 7 6 4 3 4 6 8 6 5 5 4 3 3 3 4 4 4 5 5 5 5 4 3 3 7 10 12 10 8 9 12 14 13 13 14 14 13 12 13 14 15 13 9 8 9 13 17 18 19 19 17 15
16 16 16 15 14 13 11 11 11 9 8 7 5 5 5 6 7 6 4 3 2 2 2 3 3 3 3 3 5 6 5 6 6 2 3 5 6 6 6 4 5 9 9 10 12 12 10 9 9 13 16 17 11 8 9 11 14 16 17 17 16 16
18 17 17 16 15 14 13 13 11 10 9 8 6 6 6 7 6 5 3 1 1 2 3 3 3 2 1 1 3 6 7 6 7 7 7 6 5 2 3 4 4 4 4 4 5 6 7 5 5 8 11 14 14 11 9 8 10 12 14 15 16 17
20 18 17 16 17 16 14 12 11 10 10 9 7 6 6 6 5 4 3 1 1 2 2 3 3 3 3 3 3 5 8 8 9 10 11 11 13 11 6 5 4 4 6 5 2 2 3 3 4 3 1 5 9 11 9 8 8 10 12 14 16 17
21 20 18 18 18 17 15 12 10 10 10 8 7 6 6 6 6 5 3 2 2 3 3 4 5 5 7 7 7 8 9 11 12 12 12 13 14 14 13 11 9 8 10 9 6 3 2 3 5 4 2 2 3 4 6 5 6 9 10 11 14 16
22 21 20 20 18 17 16 13 11 10 9 7 7 7 7 8 7 6 4 3 2 2 2 3 4 5 7 9 9 10 10 11 12 12 13 14 15 15 15 15 13 11 11 12 10 7 6 5 4 3 2 1 1 1 2 3 7 9 7 5 7 11
23 23 22 21 19 18 16 15 13 12 10 8 8 8 8 8 7 6 5 3 2 2 2 3 4 4 5 7 8 8 9 10 11 10 11 12 14 14 14 14 13 13 12 12 12 11 9 8 7 5 3 2 1 0 1 2 5 6 5 6 5 4
25 25 24 22 20 18 16 16 17 17 14 12 11 10 8 8 8 7 6 4 3 4 4 4 4 4 5 5 5 6 6 7 8 9 9 10 11 11 12 12 11 11 12 11 11 12 11 9 8 7 5 3 1 0 1 1 1 1 6 7 3 5
27 27 26 23 21 19 17 17 19 19 16 15 14 11 9 8 8 7 6 5 5 6 6 6 5 5 5 5 5 5 5 6 7 8 8 9 11 11 11 11 10 9 9 8 8 11 12 8 7 7 7 5 4 3 1 2 2 1 4 4 5 10
29 29 27 25 23 21 19 19 20 19 16 14 12 10 10 9 8 7 6 6 5 5 6 6 6 6 6 6 6 7 7 8 9 10 10 11 12 12 11 11 10 9 8 8 8 9 9 8 6 6 5 5 5 5 3 2 2 3 2 2 5 9
31 30 28 26 24 22 20 20 21 20 16 14 12 10 11 10 9 7 7 7 7 5 5 6 6 6 6 7 8 9 9 10 11 11 11 11 12 11 12 11 11 11 9 9 9 8 8 8 7 6 5 5 5 4 4 3 3 4 2 2 3 3
32 31 29 27 26 24 22 21 22 21 18 15 13 12 12 11 10 8 8 8 8 7 6 6 6 6 6 7 7 8 8 9 10 10 10 11 11 12 12 12 12 11 11 10 10 9 8 8 6 5 5 5 5 5 4 3 4 6 4 3 3 3
33 32 30 28 27 25 24 23 23 22 19 16 15 15 14 13 12 11 10 10 10 9 8 7 6 6 6 6 6 5 6 7 8 8 9 10 11 12 12 12 12 12 12 12 12 11 10 9 7 6 5 5 5 5 4 2 3 5 3 2 4 4
33 33 31 30 28 26 25 25 24 24 22 18 17 18 17 16 15 13 12 11 11 11 10 9 7 6 5 5 4 3 3 4 5 7 8 10 11 11 11 11 12 13 13 13 12 12 12 11 10 9 7 7 6 5 4 3 3 3 3 3 4 4
35 35 33 31 30 28 27 27 26 26 24 21 19 19 19 17 16 15 13 13 12 12 11 10 9 7 6 5 4 2 1 1 3 5 7 8 8 9 10 11 12 12 12 12 11 11 11 11 11 10 9 9 8 8 6 5 4 4 4 4 4 4
35 35 34 32 31 30 29 29 28 27 26 23 21 21 20 19 17 16 15 14 13 12 11 10 10 9 7 5 4 3 2 1 1 3 5 6 6 7 8 10 12 12 12 12 11 11 10 10 10 10 10 9 9 9 9 7 6 5 5 5 5 5
35 35 34 33 32 31 31 30 29 29 27 25 23 22 21 20 19 17 16 15 14 13 11 9 9 10 9 7 6 5 4 2 0 2 4 4 4 5 6 8 10 10 11 11 10 10 10 10 11 10 10 10 10 10 9 9 8 7 6 6 6 6
35 35 35 35 35 33 32 32 31 30 29 27 25 24 23 22 21 19 18 17 15 14 12 10 10 10 10 9 8 7 6 4 1 1 2 3 3 3 5 7 8 9 9 9 9 10 10 10 11 12 12 12 11 11 10 9 9 9 8 7 8 8
31 32 34 36 36 35 33 33 33 32 30 29 27 26 25 24 22 21 20 19 17 15 14 13 12 12 11 10 10 9 7 5 3 2 2 1 1 2 4 5 6 8 8 8 8 8 9 10 11 12 12 12 12 11 10 10 9 9 9 10 10 10

ECMWFFLT2_925_spd_030.txt.gz
Wind_Speed
13 13 14 14 12 14 15 15 15 14 14 14 13 13 12 12 11 10 11 11 10 10 10 10 10 10 11 11 10 10 11 10 10 10 10 10 9 9 8 7 8 9 9 9 9 8 8 8 8 7 5 2 2 2 4 5 5 4 2 1 2 1
13 12 14 14 12 13 14 14 14 14 14 13 12 12 11 10 9 9 10 10 11 12 12 12 11 10 10 11 10 11 11 10 10 11 9 8 8 8 8 8 7 9 10 9 9 7 7 8 8 8 6 3 1 2 4 5 6 5 3 2 2 2
13 13 12 12 12 13 13 13 12 11 13 12 12 11 11 10 9 10 10 10 11 10 10 10 12 12 11 10 11 12 12 10 10 11 10 8 8 8 8 8 8 8 9 9 9 8 7 7 7 8 6 4 3 4 4 4 5 5 4 3 2 3
13 13 12 11 11 12 12 11 10 10 11 12 11 11 10 10 10 11 11 11 10 7 6 6 9 11 10 9 11 11 11 10 9 10 11 9 9 10 9 8 9 8 8 9 10 9 9 7 6 6 6 4 4 4 4 4 5 6 5 3 3 5
12 12 11 11 10 11 11 10 9 10 9 9 10 9 9 9 9 9 9 9 7 6 4 4 7 9 8 8 9 10 10 10 10 11 12 12 10 10 9 9 9 8 8 9 10 9 9 8 7 6 6 5 4 4 4 4 5 6 5 4 5 6
11 10 10 10 10 10 10 9 8 8 7 7 8 7 7 7 8 8 8 8 4 4 4 4 7 7 7 7 8 9 10 10 10 10 11 12 10 9 9 9 8 8 8 8 9 9 9 8 8 7 6 6 5 4 5 5 6 7 6 5 6 7
10 10 10 9 9 9 8 8 7 8 7 7 7 7 7 7 8 8 7 7 4 3 5 5 6 7 6 7 8 10 11 9 9 9 9 10 9 8 9 8 8 7 7 7 8 8 9 9 8 7 7 7 6 5 5 6 7 7 7 6 7 7
10 9 8 8 8 7 7 7 8 8 7 7 7 6 7 8 9 9 7 6 5 4 5 6 7 7 7 7 9 12 10 8 7 8 8 9 9 9 8 8 7 7 7 7 8 8 9 10 9 9 7 7 7 6 6 6 6 7 7 6 6 7
10 9 8 7 7 7 7 7 7 8 7 7 7 6 7 8 8 7 6 5 5 6 7 7 8 7 7 8 12 13 8 7 9 9 9 9 9 9 8 8 7 7 7 7 8 8 9 10 10 10 9 8 8 8 7 6 7 7 7 7 6 7
9 8 7 7 7 7 7 7 7 8 7 7 7 6 7 7 6 5 5 6 6 7 7 8 7 6 7 9 11 11 7 7 11 11 11 10 10 9 8 7 7 6 6 7 8 8 9 10 10 11 11 10 9 9 8 7 8 8 8 7 6 7
7 6 5 5 4 4 5 5 5 6 7 6 6 6 6 7 7 6 6 8 9 8 8 9 7 6 7 7 8 8 7 8 9 11 13 13 13 11 8 7 6 6 6 6 7 9 9 9 10 11 12 11 10 10 9 9 9 8 8 8 7 7
7 6 4 4 3 2 2 2 2 3 4 5 5 5 5 5 6 6 6 9 11 10 9 9 7 7 7 6 6 7 8 9 8 8 11 13 14 13 10 8 7 7 6 5 5 9 10 9 10 11 11 11 11 10 11 11 10 10 9 9 8 7
7 6 5 4 3 3 2 2 2 2 2 3 3 3 4 5 5 5 6 8 9 9 8 7 6 6 6 6 7 8 8 8 8 7 8 11 13 14 12 10 8 8 7 6 6 9 10 11 11 11 10 10 10 11 12 12 12 12 11 10 9 8
7 7 6 5 3 3 3 2 2 2 2 2 2 2 1 4 5 4 5 7 8 8 8 7 5 4 6 6 7 8 8 7 7 7 7 8 11 13 13 11 10 9 9 9 9 11 11 12 12 11 10 10 10 11 11 12 12 13 13 12 11 9
8 7 6 5 4 3 3 2 2 3 3 2 2 2 2 2 3 3 3 4 4 5 7 7 5 4 5 5 6 7 8 7 7 7 7 7 9 12 13 12 12 11 10 10 11 12 12 12 12 11 10 9 10 10 11 12 13 13 13 13 12 11
9 8 6 5 4 4 3 3 3 4 4 3 3 3 3 2 3 3 3 3 3 4 5 6 5 4 4 5 5 6 7 7 7 7 7 8 8 11 14 13 13 13 11 11 12 12 12 11 11 11 10 9 9 9 10 13 13 14 14 14 14 13
9 8 7 6 6 5 5 5 4 5 4 4 3 3 3 3 3 3 4 4 4 4 5 5 5 3 3 4 4 5 6 6 6 7 7 7 7 10 13 13 14 14 13 12 13 13 12 11 10 10 10 10 9 8 9 12 13 13 14 15 14 14
9 9 8 8 8 7 6 5 5 5 5 4 4 3 3 3 3 3 4 4 4 4 4 4 4 3 2 3 3 3 5 5 6 7 7 7 8 9 11 13 14 15 14 13 13 13 13 12 12 10 10 10 9 8 8 9 11 12 14 15 15 16
9 9 9 9 9 8 7 6 5 5 5 4 4 3 3 3 3 4 4 4 3 3 2 2 2 2 2 2 3 3 4 5 5 6 6 7 8 10 11 12 12 13 15 15 13 13 12 11 11 10 10 9 9 9 9 9 10 11 13 14 16 17
10 10 10 10 9 7 6 6 5 5 5 4 4 4 3 4 4 4 5 4 3 2 1 1 1 2 2 2 3 4 3 4 4 5 6 6 8 10 11 10 9 10 13 15 14 13 12 10 9 9 10 10 10 11 9 9 10 11 13 13 15 16
11 11 10 9 8 7 6 5 5 5 5 4 4 5 5 5 5 5 5 4 3 2 1 1 1 2 2 1 2 3 2 3 3 3 5 5 6 8 9 8 8 8 10 13 14 14 12 9 7 8 8 9 12 12 9 10 11 11 13 13 14 14
12 12 10 9 7 6 5 5 5 5 5 5 5 5 6 6 6 6 5 4 4 3 3 3 2 3 2 2 2 2 2 1 1 2 1 2 4 5 6 6 6 7 8 10 12 13 13 10 8 7 5 6 9 9 9 13 16 13 11 11 12 14
13 12 10 9 8 7 6 5 5 5 5 5 5 5 6 7 6 6 6 5 6 6 5 5 5 4 4 4 3 3 3 2 2 2 3 3 2 2 3 3 4 5 6 7 7 8 11 10 9 6 4 4 4 4 4 10 16 16 10 7 9 12
13 12 11 10 8 8 9 8 6 6 6 5 5 6 6 7 6 6 6 6 6 6 6 6 6 6 5 5 5 5 5 5 4 4 4 4 4 3 2 2 2 2 4 6 7 5 5 7 8 6 3 3 2 2 2 3 8 13 10 6 6 9
14 13 12 11 10 10 11 10 9 8 7 6 7 7 7 7 7 6 6 6 6 6 6 6 6 6 6 6 6 6 6 6 5 4 4 4 4 4 3 3 2 2 1 4 3 2 1 2 4 5 5 2 1 2 2 0 2 6 9 7 5 6
14 13 13 12 12 11 11 11 11 10 9 8 8 7 7 7 7 6 6 7 7 7 7 7 6 6 6 6 6 6 5 5 5 4 3 3 4 4 4 4 3 2 2 3 1 2 2 1 0 3 4 1 1 0 1 1 1 1 6 7 6 7
15 14 14 13 13 12 11 12 11 10 8 8 8 8 8 8 8 7 8 8 8 7 7 7 6 6 5 5 5 5 5 5 5 5 4 4 4 4 4 4 4 4 3 4 2 2 2 1 1 2 1 4 4 3 3 2 1 1 2 4 5 8
16 14 15 15 15 13 12 12 11 9 8 7 7 9 9 9 8 8 8 8 8 8 7 7 7 6 6 6 6 6 6 6 6 6 5 5 5 4 4 4 5 4 4 4 3 2 2 2 2 2 3 4 4 3 2 3 3 2 1 1 2 4
17 15 15 17 16 14 13 12 11 10 9 7 7 8 9 9 9 9 8 8 8 8 7 7 7 7 8 8 8 8 7 7 7 6 6 6 6 5 5 5 5 5 4 5 5 4 3 2 3 3 3 3 3 3 1 1 3 3 2 1 1 1
18 16 16 18 18 16 14 13 12 12 10 9 8 8 9 9 9 9 8 8 8 8 8 7 8 8 8 8 8 7 7 7 7 7 6 7 6 6 7 7 7 6 6 5 5 5 4 3 3 3 3 3 3 4 4 2 2 3 3 3 3 3
20 17 17 19 19 17 16 14 13 13 12 11 10 9 9 9 9 9 9 9 8 7 8 8 8 8 8 8 7 7 7 7 7 7 6 6 6 6 6 7 7 7 7 6 5 5 5 4 3 3 3 2 2 2 2 2 2 3 4 4 4 4
20 19 18 19 20 18 17 15 14 13 13 13 12 11 10 10 10 9 9 9 8 8 8 8 8 8 8 8 7 6 6 6 6 6 6 6 6 5 5 5 6 6 6 6 6 5 5 4 3 3 3 2 2 2 2 2 2 2 3 4 4 5
21 21 19 19 20 18 18 17 15 14 14 13 13 12 10 10 10 9 9 9 9 9 9 9 9 9 10 9 8 7 6 5 5 5 5 6 6 6 5 5 5 6 6 6 6 5 5 5 4 4 3 3 2 2 2 2 2 2 3 4 5 5
20 20 19 19 19 19 19 18 16 14 13 13 13 13 11 10 10 10 9 9 10 9 9 9 10 9 10 10 8 7 7 6 5 5 5 6 5 5 5 5 6 6 6 6 6 6 6 5 5 4 4 3 3 3 2 2 2 2 3 4 4 5
19 19 19 19 20 20 19 18 16 15 14 13 13 13 12 11 11 11 10 10 10 9 9 10 10 10 11 11 9 9 8 7 7 6 5 5 5 5 4 5 5 5 5 5 5 5 5 5 5 5 4 4 3 3 4 3 3 3 3 4 4 5
16 16 17 18 19 19 18 17 16 16 14 13 13 13 13 12 12 12 11 11 11 10 10 9 10 11 11 11 10 10 9 8 8 7 6 6 5 5 4 4 4 5 5 5 5 5 5 5 5 4 4 4 3 3 4 4 4 4 4 4 5 6
14 13 14 16 16 17 17 16 16 17 17 16 15 14 13 14 14 14 13 12 11 11 11 10 10 11 12 11 10 10 9 9 9 8 7 7 6 6 5 5 5 5 5 5 5 4 4 4 4 4 4 3 3 3 4 4 4 4 5 5 6 6

ECMWFFLT2_925_spd_033.txt.gz
Wind_Speed
16 17 16 15 14 13 14 15 15 15 15 15 14 13 14 13 13 11 11 11 10 8 7 7 9 9 11 12 12 11 11 10 10 9 10 10 9 8 8 8 9 9 10 10 9 8 7 7 6 5 3 1 1 2 4 4 4 4 3 3 5 2
16 16 14 13 12 12 14 15 15 14 14 14 13 13 13 12 12 11 10 11 11 11 9 9 10 10 12 13 13 13 12 11 10 10 10 10 9 9 9 9 9 10 10 10 8 7 7 7 6 6 5 2 0 2 4 5 4 4 4 4 5 1
15 14 13 12 11 13 15 16 14 12 13 13 12 12 11 11 10 10 10 10 11 12 12 12 12 12 12 12 13 14 13 12 11 11 11 10 10 10 10 10 9 9 9 9 8 8 7 7 7 6 6 5 4 5 4 5 5 5 5 5 5 1
14 14 14 12 12 13 14 15 12 12 12 12 12 10 10 9 9 7 7 7 8 9 11 12 12 12 11 11 13 14 14 14 13 13 12 11 11 10 10 10 10 9 8 9 9 9 8 8 9 6 6 7 6 6 5 5 6 6 5 7 8 2
16 16 14 12 12 13 13 11 11 13 11 11 11 10 9 7 6 2 3 5 5 6 10 12 12 12 12 11 12 13 15 15 13 13 14 12 11 11 11 10 10 9 8 9 9 9 8 9 10 7 6 8 6 6 6 6 6 6 5 7 8 3
17 16 13 11 11 13 13 10 12 12 8 10 11 10 9 6 4 2 5 7 5 7 10 11 10 11 13 12 11 12 14 15 12 12 13 13 12 12 12 10 10 9 9 8 8 8 8 9 10 8 7 8 7 7 7 7 6 7 7 6 5 4
15 14 13 11 9 11 12 10 11 9 6 9 10 10 8 5 5 6 6 5 7 10 10 8 8 10 13 12 11 11 11 13 13 11 11 11 11 11 11 10 10 10 9 7 7 7 8 9 9 10 9 8 8 8 7 8 7 7 7 6 6 5
10 11 14 12 8 8 10 10 10 8 7 9 10 9 7 5 6 8 8 6 8 11 9 9 11 12 12 11 12 11 10 11 12 12 13 11 9 9 10 10 10 9 8 7 6 7 8 9 10 11 10 8 8 8 8 7 7 8 8 8 7 6
7 7 10 11 9 8 8 8 8 8 9 10 9 9 8 9 10 10 11 9 10 11 10 11 13 14 13 14 13 11 10 9 8 10 12 11 9 10 10 9 8 8 7 7 6 6 7 9 9 10 10 9 9 9 9 8 8 8 9 9 8 7
6 4 4 5 7 8 7 7 8 9 11 11 10 10 10 12 11 11 12 11 11 11 9 11 12 13 12 13 12 8 8 9 7 9 8 7 8 10 11 11 9 8 8 7 7 6 7 9 9 10 12 12 10 9 9 9 9 9 10 9 9 9
6 4 3 2 3 4 5 6 6 8 10 10 10 10 9 10 9 9 12 12 11 9 7 9 9 8 8 10 9 7 8 8 9 9 8 9 9 10 11 11 10 9 8 7 7 6 6 8 9 9 12 14 12 10 10 10 10 10 11 10 9 9
5 5 3 2 2 2 3 3 4 5 6 6 6 6 6 7 6 6 9 10 9 8 7 8 6 5 6 8 8 7 8 8 8 8 8 10 11 12 12 11 9 8 9 7 6 7 7 7 9 9 10 13 13 11 10 10 11 10 11 11 10 10
5 5 3 2 1 1 0 0 1 2 3 4 3 3 4 6 5 4 7 7 7 8 7 7 7 7 7 8 7 6 8 8 8 7 8 10 10 11 12 12 10 8 9 7 7 8 7 7 10 10 10 11 12 12 11 11 12 11 11 11 10 10
6 5 4 3 1 1 1 2 1 1 1 1 1 1 3 5 5 5 5 6 7 7 7 8 7 7 7 9 8 7 8 8 8 8 8 8 9 9 10 12 11 9 10 9 8 8 7 8 10 11 10 10 11 11 12 12 11 12 12 11 11 10
6 5 4 3 2 2 2 2 2 2 3 2 1 1 2 3 4 4 4 5 5 5 6 7 6 6 8 9 8 8 9 9 9 9 8 7 6 7 9 11 11 11 11 10 10 9 9 10 11 11 10 9 10 11 11 11 11 12 13 13 12 12
7 6 5 4 3 2 2 2 2 3 2 2 2 2 1 2 2 3 3 3 4 3 4 5 5 6 7 8 8 8 8 9 10 8 7 6 5 6 8 11 13 13 11 10 11 10 10 11 11 11 9 8 9 9 10 11 11 12 12 13 14 13
8 7 6 4 4 3 3 3 3 3 2 2 2 2 1 1 1 1 2 2 3 2 2 4 5 4 5 6 8 8 7 8 9 7 7 7 6 7 9 12 13 13 12 12 11 10 11 11 10 10 9 9 8 8 9 10 11 11 12 13 14 14
8 7 7 5 5 5 4 4 3 3 2 3 2 2 2 1 2 2 2 2 2 3 2 2 2 2 3 4 5 5 5 5 6 6 8 8 6 7 7 9 11 11 12 13 13 11 10 9 9 9 8 9 10 9 9 9 9 10 11 12 13 14
9 8 7 7 6 5 5 4 3 3 3 2 2 2 1 2 3 2 2 3 3 2 2 1 1 1 3 4 4 3 3 4 5 6 7 7 7 7 7 9 10 11 13 14 14 13 8 7 10 10 8 8 9 9 9 7 8 10 10 11 12 13
10 9 8 7 7 6 5 5 4 4 3 3 3 3 2 3 4 3 3 3 3 2 1 2 2 2 2 3 4 5 4 4 5 5 6 7 8 8 9 10 10 12 14 14 15 13 9 7 8 9 8 6 6 7 8 7 9 12 11 10 11 13
10 9 9 8 7 6 5 5 4 4 4 3 4 4 4 4 4 4 4 4 4 4 3 2 2 2 2 2 3 4 4 5 5 4 3 5 6 7 9 9 10 11 11 10 11 12 11 9 8 8 8 7 8 9 9 10 14 15 13 11 11 13
11 10 9 7 6 5 4 4 4 5 5 4 4 4 5 4 4 4 4 4 4 4 3 2 2 1 1 1 2 3 3 4 4 4 3 1 2 3 6 7 7 8 7 7 9 10 11 10 8 7 5 5 7 8 9 12 17 18 17 16 13 12
11 11 10 8 7 6 5 4 4 5 4 4 5 5 6 5 4 5 4 4 4 4 3 3 3 2 1 2 2 2 2 2 4 4 3 3 3 1 2 3 4 4 3 5 6 6 9 10 8 4 2 2 2 3 5 7 12 16 18 17 16 14
13 12 11 10 8 7 7 6 6 6 5 6 7 6 6 6 5 5 5 4 4 4 3 4 4 3 3 3 2 2 2 3 4 5 4 4 5 5 4 3 2 1 1 3 3 2 3 6 6 4 1 1 1 1 2 2 5 9 11 12 14 15
14 13 12 12 10 9 9 8 8 8 7 7 7 6 6 6 5 5 5 5 4 4 4 4 4 4 5 4 3 3 2 3 3 4 5 4 5 6 6 6 6 5 4 3 2 3 1 2 3 5 4 1 1 2 2 0 1 3 5 6 8 11
14 14 14 14 12 11 10 9 9 9 8 7 7 7 6 6 6 5 5 5 4 4 4 4 4 5 5 5 4 3 3 3 3 4 5 5 4 5 7 7 8 6 5 5 2 2 1 2 2 2 4 3 1 1 0 0 1 1 3 5 5 7
15 14 15 16 14 12 11 11 10 9 8 8 7 7 7 7 6 6 6 5 5 4 4 4 4 5 5 4 4 4 4 4 4 4 4 5 5 5 6 7 8 8 7 6 4 1 3 3 3 3 3 3 1 1 2 1 1 1 1 2 3 5
15 15 16 17 16 14 12 12 11 10 9 8 8 8 8 7 6 7 6 6 5 5 4 4 4 5 5 5 5 4 4 4 4 4 4 6 6 6 7 6 7 7 7 7 7 6 4 3 2 2 3 3 2 1 2 2 3 3 2 2 1 1
16 16 17 18 18 15 13 12 11 11 10 9 9 9 9 8 7 7 6 5 5 5 5 5 5 5 6 6 6 5 5 5 5 6 6 7 7 7 7 7 7 8 7 7 7 7 6 6 6 5 4 2 0 1 2 4 3 1 1 0 2 2
17 16 18 19 18 16 14 13 12 12 12 11 11 10 9 9 8 7 7 6 5 5 5 5 5 5 5 6 6 5 5 5 5 6 6 7 7 7 8 8 8 8 8 8 7 7 6 6 6 6 6 5 4 3 1 3 4 2 2 3 3 2
18 17 18 19 19 18 15 14 13 13 13 12 12 11 10 10 9 8 8 7 6 5 5 5 5 5 5 5 5 5 4 4 5 5 5 5 6 6 6 7 7 8 8 8 8 7 7 6 5 5 6 6 6 6 4 3 3 3 3 2 3 3
20 18 18 19 19 18 17 14 13 13 14 13 13 12 12 11 10 9 8 8 7 6 6 6 6 5 5 4 4 4 4 4 4 4 4 5 5 5 6 6 7 7 8 8 8 8 7 7 7 6 6 6 6 5 5 5 5 4 4 4 4 4
21 19 18 19 20 19 18 16 14 14 14 14 14 13 12 12 11 10 9 8 8 7 7 7 6 6 6 5 4 4 3 3 3 3 4 4 4 5 5 5 6 6 7 7 7 7 7 7 7 6 6 6 6 6 6 6 5 4 3 4 5 4
22 20 18 18 19 19 18 17 15 14 14 14 14 13 12 12 12 10 9 9 8 7 7 7 7 7 7 6 5 4 3 3 3 3 3 3 3 4 3 4 5 5 6 6 6 7 7 6 6 6 6 5 5 6 6 6 5 5 5 5 5 6
21 20 18 18 18 19 18 17 16 15 14 14 13 13 12 12 12 11 10 10 9 7 7 7 7 7 8 7 6 5 4 4 3 3 3 2 2 2 2 3 4 4 4 5 5 5 6 6 6 6 6 5 4 5 6 6 6 6 6 6 5 6
19 19 18 17 17 18 17 17 17 16 15 14 14 14 13 12 13 12 11 10 10 9 8 8 8 9 9 8 7 7 6 5 5 4 3 3 2 2 1 1 3 3 3 3 4 4 4 5 5 6 6 5 4 5 6 5 5 6 6 6 5 5
17 17 17 16 16 16 16 16 17 17 16 15 15 14 13 13 13 13 12 11 11 11 10 9 9 10 10 10 9 8 7 7 6 5 5 4 3 3 2 2 2 2 3 3 3 3 3 3 4 4 5 5 4 5 5 5 5 5 5 5 5 5

ECMWFFLT2_925_spd_036.txt.gz
Wind_Speed
19 17 18 17 16 15 15 14 13 13 12 11 10 11 11 10 9 8 9 10 10 9 8 9 10 9 10 10 9 9 9 8 7 6 5 5 5 5 5 5 6 6 6 7 7 6 6 6 4 3 2 2 3 7 8 4 2 3 11 9 6 4
19 18 19 17 15 14 15 14 11 11 10 10 9 9 10 9 8 10 11 10 10 9 9 10 11 11 10 10 10 10 10 9 8 7 6 6 5 5 5 6 6 6 7 7 7 8 7 5 4 4 3 3 3 5 5 3 4 3 11 11 8 6
19 18 18 17 14 13 14 13 11 10 10 9 8 8 9 10 10 12 12 12 12 12 11 11 11 11 11 10 11 11 10 9 8 8 7 6 6 7 7 7 7 6 6 6 8 8 7 7 5 4 4 5 4 4 2 5 6 2 8 12 8 7
18 18 16 15 13 11 13 13 12 12 12 10 10 9 9 10 12 11 12 13 14 13 12 12 10 9 10 11 12 11 10 10 9 9 8 7 8 8 8 8 8 7 7 6 6 7 8 11 10 5 5 7 5 4 4 6 7 3 7 11 8 7
18 17 15 13 12 9 12 12 11 12 11 10 9 8 9 11 12 11 12 11 12 13 12 12 10 8 8 9 10 10 11 12 10 9 9 9 9 9 9 8 9 8 7 6 5 6 8 10 11 7 4 6 5 6 7 6 6 4 7 9 7 6
18 18 16 15 14 12 13 12 10 11 10 9 6 6 9 10 10 10 10 9 8 10 11 11 10 8 8 7 8 10 13 13 11 10 10 10 10 10 10 9 10 9 6 8 8 8 10 10 10 9 7 6 5 6 7 7 7 4 6 8 7 5
18 19 17 14 14 14 14 11 10 10 9 9 8 8 9 9 9 9 9 9 7 6 8 9 8 7 7 7 8 9 12 12 11 12 11 11 13 12 11 10 11 10 7 9 11 10 9 10 11 11 9 8 8 8 8 8 9 7 6 6 6 5
19 19 16 13 13 13 13 10 9 9 8 9 10 10 11 11 11 10 8 9 8 6 7 7 7 7 7 8 9 9 10 11 11 12 12 12 13 13 12 11 11 11 9 10 10 9 8 9 11 11 9 9 9 9 9 9 11 10 8 6 6 6
17 17 16 14 12 11 10 8 7 7 7 8 10 11 13 13 11 11 9 9 10 9 9 8 7 8 8 9 10 10 10 11 12 13 11 10 10 10 10 11 12 11 10 11 10 9 8 8 10 11 11 10 10 9 8 9 9 10 10 8 7 7
17 18 17 17 15 11 10 8 7 7 7 8 9 8 11 12 11 12 11 11 12 12 12 10 8 8 8 9 10 10 11 10 10 9 8 9 9 8 9 10 12 11 10 10 11 10 9 9 10 10 10 11 11 11 9 9 9 9 10 10 9 8
17 17 14 17 19 16 13 10 9 8 7 7 7 8 10 10 9 10 12 13 13 14 14 12 9 7 7 8 9 9 8 8 7 6 6 8 8 8 9 9 10 11 9 10 11 10 8 9 10 10 11 12 12 13 11 10 10 10 11 11 10 9
16 14 12 13 16 15 14 12 9 8 8 7 6 6 8 8 8 8 10 12 12 13 13 11 10 7 5 6 7 5 5 8 7 6 7 6 6 8 8 8 9 9 9 10 11 8 6 7 10 12 9 10 13 14 13 11 10 10 12 14 13 11
17 16 14 12 12 10 10 10 8 8 8 7 5 4 5 6 6 5 7 10 11 11 11 11 10 8 6 5 5 5 5 9 8 6 6 6 7 10 11 10 10 8 9 10 10 7 7 7 7 10 12 10 11 12 12 12 11 10 11 14 14 11
17 17 16 12 10 10 9 7 7 9 7 6 5 2 2 5 7 4 4 7 9 11 12 11 9 8 8 7 6 6 6 7 7 5 4 6 7 9 11 10 8 10 11 10 9 7 7 9 7 8 11 13 12 11 9 8 10 11 10 11 13 11
17 16 16 13 12 12 10 8 9 10 8 7 7 3 1 3 5 4 4 5 7 9 11 10 9 8 8 8 8 8 7 6 7 6 5 8 9 7 7 9 10 13 13 9 8 8 8 9 8 9 12 14 12 7 7 6 8 11 11 11 11 11
16 16 15 14 13 13 10 10 10 9 8 8 8 6 4 2 3 3 2 3 4 5 6 7 8 9 7 7 8 9 8 7 7 7 7 9 9 8 9 11 13 13 13 10 8 8 9 9 7 7 11 13 11 7 6 7 7 7 8 12 14 13
16 14 15 14 13 14 12 11 10 9 8 7 7 8 7 6 7 5 3 3 2 3 3 4 6 7 5 5 7 7 7 7 7 7 9 10 9 10 11 12 13 13 13 12 9 7 8 7 6 5 7 10 10 9 8 8 9 9 9 7 9 12
15 14 14 14 14 13 12 11 11 9 8 7 7 6 6 6 8 6 5 3 3 3 3 2 3 2 2 3 3 2 3 6 7 6 7 9 8 9 10 10 11 13 13 12 11 9 8 6 6 3 4 6 6 6 7 8 9 9 10 10 8 6
15 14 14 13 14 13 11 11 10 9 9 9 9 6 6 8 6 5 5 4 3 2 2 2 1 1 1 2 1 1 1 1 4 4 5 7 7 7 8 9 9 10 12 12 12 9 7 6 3 1 4 4 5 6 6 6 7 8 8 10 11 11
15 14 14 14 13 12 11 10 10 10 9 9 10 7 8 9 8 7 6 5 4 1 2 3 2 2 2 2 2 3 3 3 3 2 3 5 7 8 8 8 8 8 8 9 11 9 6 6 4 2 2 4 5 6 7 5 5 7 7 9 10 11
16 15 14 13 12 11 11 10 10 10 9 9 9 9 8 9 8 7 5 5 4 3 3 3 3 3 3 2 3 4 4 3 4 1 1 1 3 6 6 5 6 6 5 6 7 7 7 7 4 2 1 2 3 5 6 5 6 9 10 9 9 11
16 15 13 12 11 10 10 10 9 9 10 9 10 11 10 8 7 6 5 6 6 5 4 4 5 4 4 5 4 4 4 4 4 4 3 3 2 1 3 4 4 4 3 4 4 3 5 6 4 1 1 2 2 4 5 6 6 8 11 12 11 11
17 15 13 13 12 10 10 10 10 9 11 12 12 13 11 8 7 7 7 7 6 6 6 6 5 5 7 8 6 5 7 7 7 5 5 6 6 4 2 1 1 2 1 2 2 0 2 4 4 3 2 1 1 1 2 3 3 4 8 10 9 10
18 16 15 14 13 12 11 11 11 10 12 13 13 12 11 9 8 8 8 7 7 7 7 7 7 9 10 8 7 8 7 7 7 6 6 7 8 7 7 7 5 2 2 1 1 3 2 2 4 3 2 0 0 1 1 1 1 1 2 5 6 7
19 17 17 15 14 15 13 13 13 11 12 14 11 10 10 8 7 8 8 8 7 8 8 8 9 11 10 8 9 9 8 7 6 6 9 10 10 9 8 9 9 6 5 4 4 4 4 2 2 4 3 1 1 1 0 1 1 1 1 1 3 3
19 19 18 17 16 16 15 14 13 11 12 12 10 10 9 8 7 8 9 7 8 8 8 9 10 10 10 9 8 8 10 11 7 6 10 12 11 11 10 9 9 8 6 6 6 5 5 4 4 2 3 3 2 2 1 1 1 1 1 1 1 2
20 20 20 18 17 17 16 14 13 11 12 12 11 11 10 9 8 8 8 7 8 8 8 8 9 9 9 10 9 9 10 9 7 7 9 10 10 10 10 9 9 9 9 9 8 5 5 6 6 4 3 4 3 3 2 1 1 1 1 2 3 3
20 21 21 20 19 18 17 15 13 11 11 12 13 14 11 9 9 8 8 7 8 8 8 8 9 9 10 10 10 10 8 8 10 11 10 10 9 10 10 10 10 10 10 10 10 8 7 7 7 4 3 4 6 5 3 2 4 3 1 1 2 4
21 22 21 21 20 18 18 17 14 12 12 14 15 14 11 10 9 9 8 7 8 8 8 8 9 9 10 10 10 10 9 10 13 13 11 10 11 11 12 12 12 12 11 11 11 11 12 12 10 7 3 3 5 6 6 3 4 4 2 1 2 2
21 22 22 22 21 19 19 18 16 13 13 16 16 14 13 12 10 9 8 7 7 7 7 8 9 8 9 9 9 9 9 10 11 11 11 10 10 11 12 12 13 13 13 13 12 12 12 11 10 10 10 8 6 4 4 3 3 3 2 2 2 2
22 23 23 23 22 21 20 19 17 15 14 17 17 16 16 13 11 10 8 8 7 7 7 7 7 7 7 7 8 8 9 9 9 9 9 9 9 9 10 10 11 12 12 12 12 11 11 11 10 11 12 12 12 10 7 7 6 5 5 3 2 3
24 24 24 24 23 22 21 20 18 16 15 18 17 16 17 14 12 11 9 8 8 8 8 7 6 6 6 6 7 7 7 7 8 8 8 8 8 9 9 9 9 10 11 11 11 10 10 11 11 11 11 11 11 12 11 11 9 9 8 7 5 3
25 26 26 25 24 23 22 21 20 18 16 17 17 16 17 15 13 12 11 9 9 9 9 8 7 6 6 6 5 6 6 6 6 7 7 7 8 7 7 9 9 9 10 10 10 10 10 10 10 9 10 9 10 11 10 8 7 7 6 6 7 5
24 27 27 27 25 24 23 21 20 20 18 17 17 16 16 16 14 13 12 10 10 10 10 9 8 8 7 6 6 5 5 5 5 6 6 7 7 6 7 8 8 8 8 8 8 8 9 9 9 9 9 8 8 8 7 7 7 7 8 8 8 7
23 26 27 28 27 24 23 21 20 20 19 18 17 16 16 16 15 14 13 12 10 10 10 10 9 9 8 8 7 6 6 5 5 5 5 6 6 7 8 6 6 7 7 7 7 8 9 9 8 8 8 8 8 8 7 7 7 8 8 7 6 6
21 24 26 27 27 26 23 21 21 21 19 18 17 16 14 15 15 13 13 13 12 9 10 10 10 10 10 9 9 8 7 7 6 6 5 5 5 5 6 5 5 6 6 6 7 7 7 7 8 8 8 8 7 7 7 7 6 7 7 6 5 5
16 18 23 26 26 26 24 21 20 20 19 18 17 16 14 14 16 14 12 12 12 11 10 10 11 12 11 11 11 10 9 9 8 8 7 6 6 5 6 5 5 5 6 5 5 5 5 5 6 5 6 7 5 5 6 5 5 6 5 5 6 5